Location: De Har
(53.3413°N, 6.6858°E)
Time: 08:46:30
(UTC+00:00)

NPP - Pass Details

Date: 22 April 2026
Orbit: 825 x 829 km, 98.8° (Epoch: 15 May)

Event Time Altitude Azimuth Distance (km) Brightness Sun altitude
Rises 00:59:49 0° 19° (NNE) 3,378 8.4 -21.9°
Reaches altitude 10° 01:02:19 10° 27° (NNE) 2,440 7.3 -21.7°
Maximum altitude 01:07:26 42° 98° (E) 1,160 4.5 -21.4°
Enters shadow 01:09:58 26° 152° (SSE) 1,569 4.8 -21.2°
